Year,Month,Day,Hour,Minute,Value (Times are PST for temperature in C)
2008,11,25,00,00,1.10
2008,11,25,00,01,1.10
2008,11,25,00,02,1.10
2008,11,25,00,03,1.00
2008,11,25,00,04,1.00
2008,11,25,00,05,1.00
2008,11,25,00,06,1.00
2008,11,25,00,07,0.90
2008,11,25,00,08,0.90
2008,11,25,00,09,0.90
2008,11,25,00,10,0.90
2008,11,25,00,11,0.90
2008,11,25,00,12,0.90
2008,11,25,00,13,0.80
2008,11,25,00,14,0.80
2008,11,25,00,15,0.80
2008,11,25,00,16,0.80
2008,11,25,00,17,0.80
2008,11,25,00,18,0.80
2008,11,25,00,19,0.80
2008,11,25,00,20,0.80
2008,11,25,00,21,0.80
2008,11,25,00,22,0.80
2008,11,25,00,23,0.80
2008,11,25,00,24,0.80
2008,11,25,00,25,0.70
2008,11,25,00,26,0.80
2008,11,25,00,27,0.70
2008,11,25,00,28,0.70
2008,11,25,00,29,0.70
2008,11,25,00,30,0.70
2008,11,25,00,31,0.70
2008,11,25,00,32,0.70
2008,11,25,00,33,0.70
2008,11,25,00,34,0.70
2008,11,25,00,35,0.70
2008,11,25,00,36,0.70
2008,11,25,00,37,0.70
2008,11,25,00,38,0.70
2008,11,25,00,39,0.70
2008,11,25,00,40,0.70
2008,11,25,00,41,0.70
2008,11,25,00,42,0.70
2008,11,25,00,43,0.70
2008,11,25,00,44,0.70
2008,11,25,00,45,0.60
2008,11,25,00,46,0.60
2008,11,25,00,47,0.60
2008,11,25,00,48,0.60
2008,11,25,00,49,0.60
2008,11,25,00,50,0.60
2008,11,25,00,51,0.60
2008,11,25,00,52,0.50
2008,11,25,00,53,0.50
2008,11,25,00,54,0.40
2008,11,25,00,55,0.40
2008,11,25,00,56,0.40
2008,11,25,00,57,0.40
2008,11,25,00,58,0.40
2008,11,25,00,59,0.40
2008,11,25,01,00,0.40
2008,11,25,01,01,0.40
2008,11,25,01,02,0.30
2008,11,25,01,03,0.40
2008,11,25,01,04,0.30
2008,11,25,01,05,0.40
2008,11,25,01,06,0.30
2008,11,25,01,07,0.30
2008,11,25,01,08,0.30
2008,11,25,01,09,0.30
2008,11,25,01,10,0.30
2008,11,25,01,11,0.30
2008,11,25,01,12,0.30
2008,11,25,01,13,0.30
2008,11,25,01,14,0.30
2008,11,25,01,15,0.30
2008,11,25,01,16,0.30
2008,11,25,01,17,0.30
2008,11,25,01,18,0.30
2008,11,25,01,19,0.20
2008,11,25,01,20,0.20
2008,11,25,01,21,0.20
2008,11,25,01,22,0.20
2008,11,25,01,23,0.20
2008,11,25,01,24,0.20
2008,11,25,01,25,0.20
2008,11,25,01,26,0.20
2008,11,25,01,27,0.20
2008,11,25,01,28,0.20
2008,11,25,01,29,0.20
2008,11,25,01,30,0.20
2008,11,25,01,31,0.20
2008,11,25,01,32,0.20
2008,11,25,01,33,0.20
2008,11,25,01,34,0.20
2008,11,25,01,35,0.20
2008,11,25,01,36,0.20
2008,11,25,01,37,0.30
2008,11,25,01,38,0.40
2008,11,25,01,39,0.40
2008,11,25,01,40,0.50
2008,11,25,01,41,0.50
2008,11,25,01,42,0.60
2008,11,25,01,43,0.60
2008,11,25,01,44,0.60
2008,11,25,01,45,0.60
2008,11,25,01,46,0.60
2008,11,25,01,47,0.50
2008,11,25,01,48,0.50
2008,11,25,01,49,0.50
2008,11,25,01,50,0.50
2008,11,25,01,51,0.50
2008,11,25,01,52,0.50
2008,11,25,01,53,0.50
2008,11,25,01,54,0.50
2008,11,25,01,55,0.50
2008,11,25,01,56,0.50
2008,11,25,01,57,0.60
2008,11,25,01,58,0.60
2008,11,25,01,59,0.70
2008,11,25,02,00,0.70
2008,11,25,02,01,0.70
2008,11,25,02,02,0.70
2008,11,25,02,03,0.70
2008,11,25,02,04,0.70
2008,11,25,02,05,0.70
2008,11,25,02,06,0.70
2008,11,25,02,07,0.70
2008,11,25,02,08,0.70
2008,11,25,02,09,0.60
2008,11,25,02,10,0.60
2008,11,25,02,11,0.60
2008,11,25,02,12,0.60
2008,11,25,02,13,0.50
2008,11,25,02,14,0.50
2008,11,25,02,15,0.50
2008,11,25,02,16,0.50
2008,11,25,02,17,0.50
2008,11,25,02,18,0.40
2008,11,25,02,19,0.40
2008,11,25,02,20,0.40
2008,11,25,02,21,0.40
2008,11,25,02,22,0.40
2008,11,25,02,23,0.40
2008,11,25,02,24,0.40
2008,11,25,02,25,0.50
2008,11,25,02,26,0.50
2008,11,25,02,27,0.60
2008,11,25,02,28,0.60
2008,11,25,02,29,0.60
2008,11,25,02,30,0.60
2008,11,25,02,31,0.60
2008,11,25,02,32,0.60
2008,11,25,02,33,0.50
2008,11,25,02,34,0.50
2008,11,25,02,35,0.50
2008,11,25,02,36,0.60
2008,11,25,02,37,0.60
2008,11,25,02,38,0.60
2008,11,25,02,39,0.60
2008,11,25,02,40,0.60
2008,11,25,02,41,0.60
2008,11,25,02,42,0.60
2008,11,25,02,43,0.50
2008,11,25,02,44,0.60
2008,11,25,02,45,0.60
2008,11,25,02,46,0.60
2008,11,25,02,47,0.60
2008,11,25,02,48,0.60
2008,11,25,02,49,0.60
2008,11,25,02,50,0.60
2008,11,25,02,51,0.60
2008,11,25,02,52,0.60
2008,11,25,02,53,0.60
2008,11,25,02,54,0.60
2008,11,25,02,55,0.60
2008,11,25,02,56,0.60
2008,11,25,02,57,0.60
2008,11,25,02,58,0.60
2008,11,25,02,59,0.60
2008,11,25,03,00,0.60
2008,11,25,03,01,0.60
2008,11,25,03,02,0.60
2008,11,25,03,03,0.50
2008,11,25,03,04,0.50
2008,11,25,03,05,0.50
2008,11,25,03,06,0.50
2008,11,25,03,07,0.50
2008,11,25,03,08,0.40
2008,11,25,03,09,0.40
2008,11,25,03,10,0.40
2008,11,25,03,11,0.30
2008,11,25,03,12,0.30
2008,11,25,03,13,0.30
2008,11,25,03,14,0.20
2008,11,25,03,15,0.20
2008,11,25,03,16,0.20
2008,11,25,03,17,0.20
2008,11,25,03,18,0.20
2008,11,25,03,19,0.20
2008,11,25,03,20,0.20
2008,11,25,03,21,0.20
2008,11,25,03,22,0.20
2008,11,25,03,23,0.30
2008,11,25,03,24,0.30
2008,11,25,03,25,0.30
2008,11,25,03,26,0.30
2008,11,25,03,27,0.30
2008,11,25,03,28,0.40
2008,11,25,03,29,0.40
2008,11,25,03,30,0.40
2008,11,25,03,31,0.40
2008,11,25,03,32,0.40
2008,11,25,03,33,0.40
2008,11,25,03,34,0.40
2008,11,25,03,35,0.40
2008,11,25,03,36,0.40
2008,11,25,03,37,0.40
2008,11,25,03,38,0.40
2008,11,25,03,39,0.40
2008,11,25,03,40,0.40
2008,11,25,03,41,0.40
2008,11,25,03,42,0.40
2008,11,25,03,43,0.40
2008,11,25,03,44,0.40
2008,11,25,03,45,0.50
2008,11,25,03,46,0.50
2008,11,25,03,47,0.60
2008,11,25,03,48,0.60
2008,11,25,03,49,0.70
2008,11,25,03,50,0.70
2008,11,25,03,51,0.80
2008,11,25,03,52,0.80
2008,11,25,03,53,0.90
2008,11,25,03,54,0.90
2008,11,25,03,55,0.90
2008,11,25,03,56,1.00
2008,11,25,03,57,1.00
2008,11,25,03,58,1.10
2008,11,25,03,59,1.10
2008,11,25,04,00,1.10
2008,11,25,04,01,1.20
2008,11,25,04,02,1.30
2008,11,25,04,03,1.30
2008,11,25,04,04,1.50
2008,11,25,04,05,1.80
2008,11,25,04,06,2.00
2008,11,25,04,07,2.10
2008,11,25,04,08,2.20
2008,11,25,04,09,2.30
2008,11,25,04,10,2.30
2008,11,25,04,11,2.30
2008,11,25,04,12,2.40
2008,11,25,04,13,2.40
2008,11,25,04,14,2.40
2008,11,25,04,15,2.40
2008,11,25,04,16,2.50
2008,11,25,04,17,2.60
2008,11,25,04,18,2.80
2008,11,25,04,19,2.90
2008,11,25,04,20,3.00
2008,11,25,04,21,3.10
2008,11,25,04,22,3.20
2008,11,25,04,23,3.20
2008,11,25,04,24,3.30
2008,11,25,04,25,3.30
2008,11,25,04,26,3.30
2008,11,25,04,27,3.30
2008,11,25,04,28,3.20
2008,11,25,04,29,3.20
2008,11,25,04,30,3.20
2008,11,25,04,31,3.20
2008,11,25,04,32,3.20
2008,11,25,04,33,3.20
2008,11,25,04,34,3.20
2008,11,25,04,35,3.10
2008,11,25,04,36,3.00
2008,11,25,04,37,2.90
2008,11,25,04,38,2.80
2008,11,25,04,39,2.70
2008,11,25,04,40,2.70
2008,11,25,04,41,2.60
2008,11,25,04,42,2.50
2008,11,25,04,43,2.50
2008,11,25,04,44,2.40
2008,11,25,04,45,2.40
2008,11,25,04,46,2.30
2008,11,25,04,47,2.30
2008,11,25,04,48,2.30
2008,11,25,04,49,2.20
2008,11,25,04,50,2.20
2008,11,25,04,51,2.20
2008,11,25,04,52,2.10
2008,11,25,04,53,2.10
2008,11,25,04,54,2.10
2008,11,25,04,55,2.00
2008,11,25,04,56,2.00
2008,11,25,04,57,2.10
2008,11,25,04,58,2.10
2008,11,25,04,59,2.20
2008,11,25,05,00,2.20
2008,11,25,05,01,2.20
2008,11,25,05,02,2.20
2008,11,25,05,03,2.20
2008,11,25,05,04,2.20
2008,11,25,05,05,2.20
2008,11,25,05,06,2.20
2008,11,25,05,07,2.20
2008,11,25,05,08,2.20
2008,11,25,05,09,2.20
2008,11,25,05,10,2.20
2008,11,25,05,11,2.20
2008,11,25,05,12,2.30
2008,11,25,05,13,2.30
2008,11,25,05,14,2.40
2008,11,25,05,15,2.40
2008,11,25,05,16,2.50
2008,11,25,05,17,2.60
2008,11,25,05,18,2.70
2008,11,25,05,19,2.90
2008,11,25,05,20,3.00
2008,11,25,05,21,3.10
2008,11,25,05,22,3.20
2008,11,25,05,23,3.20
2008,11,25,05,24,3.30
2008,11,25,05,25,3.30
2008,11,25,05,26,3.30
2008,11,25,05,27,3.30
2008,11,25,05,28,3.30
2008,11,25,05,29,3.30
2008,11,25,05,30,3.20
2008,11,25,05,31,3.20
2008,11,25,05,32,3.10
2008,11,25,05,33,3.00
2008,11,25,05,34,3.00
2008,11,25,05,35,2.90
2008,11,25,05,36,2.80
2008,11,25,05,37,2.80
2008,11,25,05,38,2.80
2008,11,25,05,39,2.70
2008,11,25,05,40,2.70
2008,11,25,05,41,2.60
2008,11,25,05,42,2.60
2008,11,25,05,43,2.60
2008,11,25,05,44,2.60
2008,11,25,05,45,2.60
2008,11,25,05,46,2.50
2008,11,25,05,47,2.50
2008,11,25,05,48,2.50
2008,11,25,05,49,2.50
2008,11,25,05,50,2.40
2008,11,25,05,51,2.40
2008,11,25,05,52,2.40
2008,11,25,05,53,2.40
2008,11,25,05,54,2.40
2008,11,25,05,55,2.40
2008,11,25,05,56,2.30
2008,11,25,05,57,2.30
2008,11,25,05,58,2.30
2008,11,25,05,59,2.30
2008,11,25,06,00,2.20
2008,11,25,06,01,2.20
2008,11,25,06,02,2.20
2008,11,25,06,03,2.20
2008,11,25,06,04,2.20
2008,11,25,06,05,2.30
2008,11,25,06,06,2.30
2008,11,25,06,07,2.30
2008,11,25,06,08,2.30
2008,11,25,06,09,2.30
2008,11,25,06,10,2.30
2008,11,25,06,11,2.30
2008,11,25,06,12,2.30
2008,11,25,06,13,2.30
2008,11,25,06,14,2.30
2008,11,25,06,15,2.30
2008,11,25,06,16,2.30
2008,11,25,06,17,2.30
2008,11,25,06,18,2.30
2008,11,25,06,19,2.30
2008,11,25,06,20,2.30
2008,11,25,06,21,2.30
2008,11,25,06,22,2.40
2008,11,25,06,23,2.40
2008,11,25,06,24,2.40
2008,11,25,06,25,2.50
2008,11,25,06,26,2.50
2008,11,25,06,27,2.60
2008,11,25,06,28,2.60
2008,11,25,06,29,2.60
2008,11,25,06,30,2.60
2008,11,25,06,31,2.60
2008,11,25,06,32,2.60
2008,11,25,06,33,2.70
2008,11,25,06,34,2.70
2008,11,25,06,35,2.70
2008,11,25,06,36,2.70
2008,11,25,06,37,2.80
2008,11,25,06,38,3.00
2008,11,25,06,39,3.20
2008,11,25,06,40,3.30
2008,11,25,06,41,3.40
2008,11,25,06,42,3.50
2008,11,25,06,43,3.60
2008,11,25,06,44,3.60
2008,11,25,06,45,3.50
2008,11,25,06,46,3.50
2008,11,25,06,47,3.40
2008,11,25,06,48,3.40
2008,11,25,06,49,3.30
2008,11,25,06,50,3.30
2008,11,25,06,51,3.30
2008,11,25,06,52,3.30
2008,11,25,06,53,3.30
2008,11,25,06,54,3.30
2008,11,25,06,55,3.20
2008,11,25,06,56,3.10
2008,11,25,06,57,3.10
2008,11,25,06,58,3.00
2008,11,25,06,59,3.00
2008,11,25,07,00,3.00
2008,11,25,07,01,3.00
2008,11,25,07,02,3.00
2008,11,25,07,03,3.00
2008,11,25,07,04,3.10
2008,11,25,07,05,3.10
2008,11,25,07,06,3.20
2008,11,25,07,07,3.20
2008,11,25,07,08,3.20
2008,11,25,07,09,3.30
2008,11,25,07,10,3.40
2008,11,25,07,11,3.50
2008,11,25,07,12,3.50
2008,11,25,07,13,3.50
2008,11,25,07,14,3.50
2008,11,25,07,15,3.50
2008,11,25,07,16,3.50
2008,11,25,07,17,3.50
2008,11,25,07,18,3.50
2008,11,25,07,19,3.50
2008,11,25,07,20,3.50
2008,11,25,07,21,3.50
2008,11,25,07,22,3.50
2008,11,25,07,23,3.50
2008,11,25,07,24,3.50
2008,11,25,07,25,3.50
2008,11,25,07,26,3.50
2008,11,25,07,27,3.50
2008,11,25,07,28,3.50
2008,11,25,07,29,3.50
2008,11,25,07,30,3.50
2008,11,25,07,31,3.50
2008,11,25,07,32,3.60
2008,11,25,07,33,3.60
2008,11,25,07,34,3.60
2008,11,25,07,35,3.60
2008,11,25,07,36,3.60
2008,11,25,07,37,3.60
2008,11,25,07,38,3.70
2008,11,25,07,39,3.70
2008,11,25,07,40,3.70
2008,11,25,07,41,3.70
2008,11,25,07,42,3.80
2008,11,25,07,43,3.80
2008,11,25,07,44,3.80
2008,11,25,07,45,3.80
2008,11,25,07,46,3.90
2008,11,25,07,47,4.00
2008,11,25,07,48,4.10
2008,11,25,07,49,4.10
2008,11,25,07,50,4.10
2008,11,25,07,51,4.20
2008,11,25,07,52,4.20
2008,11,25,07,53,4.20
2008,11,25,07,54,4.20
2008,11,25,07,55,4.20
2008,11,25,07,56,4.20
2008,11,25,07,57,4.20
2008,11,25,07,58,4.20
2008,11,25,07,59,4.20
2008,11,25,08,00,4.30
2008,11,25,08,01,4.30
2008,11,25,08,02,4.30
2008,11,25,08,03,4.20
2008,11,25,08,04,4.20
2008,11,25,08,05,4.20
2008,11,25,08,06,4.20
2008,11,25,08,07,4.20
2008,11,25,08,08,4.20
2008,11,25,08,09,4.20
2008,11,25,08,10,4.20
2008,11,25,08,11,4.20
2008,11,25,08,12,4.20
2008,11,25,08,13,4.20
2008,11,25,08,14,4.30
2008,11,25,08,15,4.30
2008,11,25,08,16,4.40
2008,11,25,08,17,4.50
2008,11,25,08,18,4.50
2008,11,25,08,19,4.50
2008,11,25,08,20,4.50
2008,11,25,08,21,4.40
2008,11,25,08,22,4.40
2008,11,25,08,23,4.40
2008,11,25,08,24,4.40
2008,11,25,08,25,4.40
2008,11,25,08,26,4.40
2008,11,25,08,27,4.40
2008,11,25,08,28,4.30
2008,11,25,08,29,4.40
2008,11,25,08,30,4.40
2008,11,25,08,31,4.40
2008,11,25,08,32,4.40
2008,11,25,08,33,4.50
2008,11,25,08,34,4.50
2008,11,25,08,35,4.60
2008,11,25,08,36,4.60
2008,11,25,08,37,4.70
2008,11,25,08,38,4.80
2008,11,25,08,39,4.90
2008,11,25,08,40,5.10
2008,11,25,08,41,5.20
2008,11,25,08,42,5.30
2008,11,25,08,43,5.40
2008,11,25,08,44,5.40
2008,11,25,08,45,5.50
2008,11,25,08,46,5.60
2008,11,25,08,47,5.60
2008,11,25,08,48,5.60
2008,11,25,08,49,5.70
2008,11,25,08,50,5.70
2008,11,25,08,51,5.80
2008,11,25,08,52,5.80
2008,11,25,08,53,5.80
2008,11,25,08,54,5.80
2008,11,25,08,55,5.90
2008,11,25,08,56,5.90
2008,11,25,08,57,5.90
2008,11,25,08,58,5.90
2008,11,25,08,59,5.90
2008,11,25,09,00,5.80
2008,11,25,09,01,5.80
2008,11,25,09,02,5.80
2008,11,25,09,03,5.80
2008,11,25,09,04,5.80
2008,11,25,09,05,5.80
2008,11,25,09,06,5.80
2008,11,25,09,07,5.80
2008,11,25,09,08,5.80
2008,11,25,09,09,5.90
2008,11,25,09,10,5.90
2008,11,25,09,11,5.90
2008,11,25,09,12,5.90
2008,11,25,09,13,5.90
2008,11,25,09,14,5.90
2008,11,25,09,15,5.90
2008,11,25,09,16,6.00
2008,11,25,09,17,6.00
2008,11,25,09,18,6.00
2008,11,25,09,19,6.10
2008,11,25,09,20,6.10
2008,11,25,09,21,6.10
2008,11,25,09,22,6.10
2008,11,25,09,23,6.10
2008,11,25,09,24,6.10
2008,11,25,09,25,6.10
2008,11,25,09,26,6.10
2008,11,25,09,27,6.10
2008,11,25,09,28,6.10
2008,11,25,09,29,6.10
2008,11,25,09,30,6.00
2008,11,25,09,31,6.10
2008,11,25,09,32,6.10
2008,11,25,09,33,6.10
2008,11,25,09,34,6.10
2008,11,25,09,35,6.10
2008,11,25,09,36,6.10
2008,11,25,09,37,6.10
2008,11,25,09,38,6.10
2008,11,25,09,39,6.10
2008,11,25,09,40,6.10
2008,11,25,09,41,6.10
2008,11,25,09,42,6.10
2008,11,25,09,43,6.10
2008,11,25,09,44,6.10
2008,11,25,09,45,6.20
2008,11,25,09,46,6.20
2008,11,25,09,47,6.20
2008,11,25,09,48,6.20
2008,11,25,09,49,6.20
2008,11,25,09,50,6.20
2008,11,25,09,51,6.20
2008,11,25,09,52,6.20
2008,11,25,09,53,6.20
2008,11,25,09,54,6.20
2008,11,25,09,55,6.20
2008,11,25,09,56,6.30
2008,11,25,09,57,6.30
2008,11,25,09,58,6.30
2008,11,25,09,59,6.30
2008,11,25,10,00,6.30
2008,11,25,10,01,6.40
2008,11,25,10,02,6.40
2008,11,25,10,03,6.40
2008,11,25,10,04,6.40
2008,11,25,10,05,6.50
2008,11,25,10,06,6.60
2008,11,25,10,07,6.60
2008,11,25,10,08,6.60
2008,11,25,10,09,6.70
2008,11,25,10,10,6.70
2008,11,25,10,11,6.70
2008,11,25,10,12,6.70
2008,11,25,10,13,6.70
2008,11,25,10,14,6.70
2008,11,25,10,15,6.70
2008,11,25,10,16,6.70
2008,11,25,10,17,6.70
2008,11,25,10,18,6.70
2008,11,25,10,19,6.70
2008,11,25,10,20,6.70
2008,11,25,10,21,6.70
2008,11,25,10,22,6.80
2008,11,25,10,23,6.80
2008,11,25,10,24,6.90
2008,11,25,10,25,6.90
2008,11,25,10,26,6.90
2008,11,25,10,27,7.00
2008,11,25,10,28,7.00
2008,11,25,10,29,7.00
2008,11,25,10,30,7.00
2008,11,25,10,31,7.00
2008,11,25,10,32,7.00
2008,11,25,10,33,7.00
2008,11,25,10,34,7.10
2008,11,25,10,35,7.10
2008,11,25,10,36,7.10
2008,11,25,10,37,7.20
2008,11,25,10,38,7.20
2008,11,25,10,39,7.20
2008,11,25,10,40,7.20
2008,11,25,10,41,7.20
2008,11,25,10,42,7.20
2008,11,25,10,43,7.20
2008,11,25,10,44,7.30
2008,11,25,10,45,7.30
2008,11,25,10,46,7.30
2008,11,25,10,47,7.30
2008,11,25,10,48,7.30
2008,11,25,10,49,7.40
2008,11,25,10,50,7.40
2008,11,25,10,51,7.40
2008,11,25,10,52,7.40
2008,11,25,10,53,7.50
2008,11,25,10,54,7.60
2008,11,25,10,55,7.60
2008,11,25,10,56,7.70
2008,11,25,10,57,7.80
2008,11,25,10,58,7.90
2008,11,25,10,59,8.00
2008,11,25,11,00,8.10
2008,11,25,11,01,8.10
2008,11,25,11,02,8.20
2008,11,25,11,03,8.30
2008,11,25,11,04,8.40
2008,11,25,11,05,8.50
2008,11,25,11,06,8.50
2008,11,25,11,07,8.60
2008,11,25,11,08,8.60
2008,11,25,11,09,8.70
2008,11,25,11,10,8.70
2008,11,25,11,11,8.70
2008,11,25,11,12,8.70
2008,11,25,11,13,8.70
2008,11,25,11,14,8.70
2008,11,25,11,15,8.70
2008,11,25,11,16,8.70
2008,11,25,11,17,8.70
2008,11,25,11,18,8.70
2008,11,25,11,19,8.70
2008,11,25,11,20,8.70
2008,11,25,11,21,8.70
2008,11,25,11,22,8.70
2008,11,25,11,23,8.70
2008,11,25,11,24,8.70
2008,11,25,11,25,8.70
2008,11,25,11,26,8.70
2008,11,25,11,27,8.70
2008,11,25,11,28,8.70
2008,11,25,11,29,8.70
2008,11,25,11,30,8.70
2008,11,25,11,31,8.70
2008,11,25,11,32,8.70
2008,11,25,11,33,8.70
2008,11,25,11,34,8.70
2008,11,25,11,35,8.70
2008,11,25,11,36,8.70
2008,11,25,11,37,8.70
2008,11,25,11,38,8.80
2008,11,25,11,39,8.80
2008,11,25,11,40,8.80
2008,11,25,11,41,8.80
2008,11,25,11,42,8.80
2008,11,25,11,43,8.80
2008,11,25,11,44,8.80
2008,11,25,11,45,8.90
2008,11,25,11,46,8.90
2008,11,25,11,47,8.90
2008,11,25,11,48,8.90
2008,11,25,11,49,9.00
2008,11,25,11,50,9.00
2008,11,25,11,51,9.00
2008,11,25,11,52,9.10
2008,11,25,11,53,9.10
2008,11,25,11,54,9.10
2008,11,25,11,55,9.20
2008,11,25,11,56,9.20
2008,11,25,11,57,9.30
2008,11,25,11,58,9.30
2008,11,25,11,59,9.30
2008,11,25,12,00,9.30
2008,11,25,12,01,9.40
2008,11,25,12,02,9.40
2008,11,25,12,03,9.40
2008,11,25,12,04,9.40
2008,11,25,12,05,9.40
2008,11,25,12,06,9.50
2008,11,25,12,07,9.50
2008,11,25,12,08,9.50
2008,11,25,12,09,9.60
2008,11,25,12,10,9.60
2008,11,25,12,11,9.60
2008,11,25,12,12,9.60
2008,11,25,12,13,9.60
2008,11,25,12,14,9.60
2008,11,25,12,15,9.60
2008,11,25,12,16,9.60
2008,11,25,12,17,9.60
2008,11,25,12,18,9.60
2008,11,25,12,19,9.60
2008,11,25,12,20,9.60
2008,11,25,12,21,9.60
2008,11,25,12,22,9.60
2008,11,25,12,23,9.60
2008,11,25,12,24,9.70
2008,11,25,12,25,9.70
2008,11,25,12,26,9.80
2008,11,25,12,27,9.90
2008,11,25,12,28,9.90
2008,11,25,12,29,10.00
2008,11,25,12,30,10.10
2008,11,25,12,31,10.10
2008,11,25,12,32,10.10
2008,11,25,12,33,10.10
2008,11,25,12,34,10.10
2008,11,25,12,35,10.20
2008,11,25,12,36,10.20
2008,11,25,12,37,10.20
2008,11,25,12,38,10.30
2008,11,25,12,39,10.30
2008,11,25,12,40,10.30
2008,11,25,12,41,10.30
2008,11,25,12,42,10.30
2008,11,25,12,43,10.30
2008,11,25,12,44,10.40
2008,11,25,12,45,10.40
2008,11,25,12,46,10.40
2008,11,25,12,47,10.50
2008,11,25,12,48,10.50
2008,11,25,12,49,10.60
2008,11,25,12,50,10.60
2008,11,25,12,51,10.60
2008,11,25,12,52,10.60
2008,11,25,12,53,10.60
2008,11,25,12,54,10.60
2008,11,25,12,55,10.60
2008,11,25,12,56,10.60
2008,11,25,12,57,10.60
2008,11,25,12,58,10.60
2008,11,25,12,59,10.60
2008,11,25,13,00,10.60
2008,11,25,13,01,10.60
2008,11,25,13,02,10.60
2008,11,25,13,03,10.70
2008,11,25,13,04,10.70
2008,11,25,13,05,10.70
2008,11,25,13,06,10.70
2008,11,25,13,07,10.80
2008,11,25,13,08,10.80
2008,11,25,13,09,10.80
2008,11,25,13,10,10.80
2008,11,25,13,11,10.80
2008,11,25,13,12,10.80
2008,11,25,13,13,10.70
2008,11,25,13,14,10.70
2008,11,25,13,15,10.70
2008,11,25,13,16,10.70
2008,11,25,13,17,10.60
2008,11,25,13,18,10.70
2008,11,25,13,19,10.70
2008,11,25,13,20,10.70
2008,11,25,13,21,10.60
2008,11,25,13,22,10.70
2008,11,25,13,23,10.70
2008,11,25,13,24,10.60
2008,11,25,13,25,10.60
2008,11,25,13,26,10.60
2008,11,25,13,27,10.50
2008,11,25,13,28,10.50
2008,11,25,13,29,10.50
2008,11,25,13,30,10.50
2008,11,25,13,31,10.50
2008,11,25,13,32,10.50
2008,11,25,13,33,10.50
2008,11,25,13,34,10.50
2008,11,25,13,35,10.40
2008,11,25,13,36,10.40
2008,11,25,13,37,10.30
2008,11,25,13,38,10.30
2008,11,25,13,39,10.30
2008,11,25,13,40,10.30
2008,11,25,13,41,10.30
2008,11,25,13,42,10.30
2008,11,25,13,43,10.30
2008,11,25,13,44,10.30
2008,11,25,13,45,10.30
2008,11,25,13,46,10.20
2008,11,25,13,47,10.20
2008,11,25,13,48,10.20
2008,11,25,13,49,10.20
2008,11,25,13,50,10.20
2008,11,25,13,51,10.20
2008,11,25,13,52,10.20
2008,11,25,13,53,10.20
2008,11,25,13,54,10.20
2008,11,25,13,55,10.10
2008,11,25,13,56,10.10
2008,11,25,13,57,10.10
2008,11,25,13,58,10.00
2008,11,25,13,59,10.00
2008,11,25,14,00,10.00
2008,11,25,14,01,10.00
2008,11,25,14,02,10.00
2008,11,25,14,03,10.00
2008,11,25,14,04,10.00
2008,11,25,14,05,9.90
2008,11,25,14,06,9.90
2008,11,25,14,07,9.90
2008,11,25,14,08,9.90
2008,11,25,14,09,9.80
2008,11,25,14,10,9.80
2008,11,25,14,11,9.80
2008,11,25,14,12,9.80
2008,11,25,14,13,9.80
2008,11,25,14,14,9.70
2008,11,25,14,15,9.70
2008,11,25,14,16,9.60
2008,11,25,14,17,9.60
2008,11,25,14,18,9.60
2008,11,25,14,19,9.60
2008,11,25,14,20,9.60
2008,11,25,14,21,9.60
2008,11,25,14,22,9.60
2008,11,25,14,23,9.60
2008,11,25,14,24,9.60
2008,11,25,14,25,9.60
2008,11,25,14,26,9.60
2008,11,25,14,27,9.60
2008,11,25,14,28,9.50
2008,11,25,14,29,9.50
2008,11,25,14,30,9.50
2008,11,25,14,31,9.50
2008,11,25,14,32,9.50
2008,11,25,14,33,9.40
2008,11,25,14,34,9.50
2008,11,25,14,35,9.50
2008,11,25,14,36,9.50
2008,11,25,14,37,9.40
2008,11,25,14,38,9.40
2008,11,25,14,39,9.40
2008,11,25,14,40,9.40
2008,11,25,14,41,9.40
2008,11,25,14,42,9.40
2008,11,25,14,43,9.40
2008,11,25,14,44,9.40
2008,11,25,14,45,9.40
2008,11,25,14,46,9.40
2008,11,25,14,47,9.30
2008,11,25,14,48,9.30
2008,11,25,14,49,9.40
2008,11,25,14,50,9.30
2008,11,25,14,51,9.30
2008,11,25,14,52,9.30
2008,11,25,14,53,9.30
2008,11,25,14,54,9.30
2008,11,25,14,55,9.30
2008,11,25,14,56,9.30
2008,11,25,14,57,9.30
2008,11,25,14,58,9.30
2008,11,25,14,59,9.20
2008,11,25,15,00,9.20
2008,11,25,15,01,9.20
2008,11,25,15,02,9.20
2008,11,25,15,03,9.20
2008,11,25,15,04,9.20
2008,11,25,15,05,9.20
2008,11,25,15,06,9.10
2008,11,25,15,07,9.10
2008,11,25,15,08,9.10
2008,11,25,15,09,9.10
2008,11,25,15,10,9.10
2008,11,25,15,11,9.10
2008,11,25,15,12,9.10
2008,11,25,15,13,9.10
2008,11,25,15,14,9.00
2008,11,25,15,15,9.00
2008,11,25,15,16,9.00
2008,11,25,15,17,9.00
2008,11,25,15,18,9.00
2008,11,25,15,19,8.90
2008,11,25,15,20,8.90
2008,11,25,15,21,8.90
2008,11,25,15,22,8.90
2008,11,25,15,23,8.90
2008,11,25,15,24,8.90
2008,11,25,15,25,8.90
2008,11,25,15,26,8.90
2008,11,25,15,27,8.90
2008,11,25,15,28,8.90
2008,11,25,15,29,8.90
2008,11,25,15,30,8.90
2008,11,25,15,31,8.80
2008,11,25,15,32,8.80
2008,11,25,15,33,8.80
2008,11,25,15,34,8.80
2008,11,25,15,35,8.80
2008,11,25,15,36,8.80
2008,11,25,15,37,8.80
2008,11,25,15,38,8.80
2008,11,25,15,39,8.80
2008,11,25,15,40,8.70
2008,11,25,15,41,8.70
2008,11,25,15,42,8.70
2008,11,25,15,43,8.70
2008,11,25,15,44,8.70
2008,11,25,15,45,8.70
2008,11,25,15,46,8.70
2008,11,25,15,47,8.70
2008,11,25,15,48,8.70
2008,11,25,15,49,8.70
2008,11,25,15,50,8.70
2008,11,25,15,51,8.70
2008,11,25,15,52,8.60
2008,11,25,15,53,8.60
2008,11,25,15,54,8.60
2008,11,25,15,55,8.50
2008,11,25,15,56,8.50
2008,11,25,15,57,8.40
2008,11,25,15,58,8.40
2008,11,25,15,59,8.40
2008,11,25,16,00,8.40
2008,11,25,16,01,8.40
2008,11,25,16,02,8.40
2008,11,25,16,03,8.40
2008,11,25,16,04,8.40
2008,11,25,16,05,8.30
2008,11,25,16,06,8.30
2008,11,25,16,07,8.30
2008,11,25,16,08,8.30
2008,11,25,16,09,8.30
2008,11,25,16,10,8.30
2008,11,25,16,11,8.30
2008,11,25,16,12,8.30
2008,11,25,16,13,8.30
2008,11,25,16,14,8.30
2008,11,25,16,15,8.30
2008,11,25,16,16,8.30
2008,11,25,16,17,8.20
2008,11,25,16,18,8.20
2008,11,25,16,19,8.20
2008,11,25,16,20,8.30
2008,11,25,16,21,8.40
2008,11,25,16,22,8.40
2008,11,25,16,23,8.40
2008,11,25,16,24,8.40
2008,11,25,16,25,8.40
2008,11,25,16,26,8.30
2008,11,25,16,27,8.30
2008,11,25,16,28,8.40
2008,11,25,16,29,8.40
2008,11,25,16,30,8.40
2008,11,25,16,31,8.30
2008,11,25,16,32,8.30
2008,11,25,16,33,8.30
2008,11,25,16,34,8.30
2008,11,25,16,35,8.30
2008,11,25,16,36,8.30
2008,11,25,16,37,8.30
2008,11,25,16,38,8.20
2008,11,25,16,39,8.20
2008,11,25,16,40,8.10
2008,11,25,16,41,8.10
2008,11,25,16,42,8.00
2008,11,25,16,43,8.00
2008,11,25,16,44,7.90
2008,11,25,16,45,7.90
2008,11,25,16,46,7.90
2008,11,25,16,47,7.90
2008,11,25,16,48,8.00
2008,11,25,16,49,8.00
2008,11,25,16,50,8.00
2008,11,25,16,51,8.00
2008,11,25,16,52,8.00
2008,11,25,16,53,8.00
2008,11,25,16,54,8.00
2008,11,25,16,55,7.90
2008,11,25,16,56,7.90
2008,11,25,16,57,8.00
2008,11,25,16,58,8.10
2008,11,25,16,59,8.10
2008,11,25,17,00,8.10
2008,11,25,17,01,8.10
2008,11,25,17,02,8.10
2008,11,25,17,03,8.10
2008,11,25,17,04,8.10
2008,11,25,17,05,8.00
2008,11,25,17,06,8.10
2008,11,25,17,07,8.00
2008,11,25,17,08,8.00
2008,11,25,17,09,8.00
2008,11,25,17,10,8.00
2008,11,25,17,11,8.00
2008,11,25,17,12,8.00
2008,11,25,17,13,7.90
2008,11,25,17,14,7.90
2008,11,25,17,15,8.00
2008,11,25,17,16,8.00
2008,11,25,17,17,8.00
2008,11,25,17,18,8.00
2008,11,25,17,19,8.00
2008,11,25,17,20,8.00
2008,11,25,17,21,8.00
2008,11,25,17,22,8.00
2008,11,25,17,23,8.00
2008,11,25,17,24,8.00
2008,11,25,17,25,8.00
2008,11,25,17,26,8.10
2008,11,25,17,27,8.00
2008,11,25,17,28,8.00
2008,11,25,17,29,7.90
2008,11,25,17,30,8.00
2008,11,25,17,31,7.90
2008,11,25,17,32,7.90
2008,11,25,17,33,7.90
2008,11,25,17,34,7.90
2008,11,25,17,35,7.90
2008,11,25,17,36,7.90
2008,11,25,17,37,7.80
2008,11,25,17,38,7.90
2008,11,25,17,39,7.90
2008,11,25,17,40,7.90
2008,11,25,17,41,7.90
2008,11,25,17,42,7.90
2008,11,25,17,43,7.90
2008,11,25,17,44,7.90
2008,11,25,17,45,7.90
2008,11,25,17,46,7.90
2008,11,25,17,47,7.90
2008,11,25,17,48,7.80
2008,11,25,17,49,7.80
2008,11,25,17,50,7.80
2008,11,25,17,51,7.80
2008,11,25,17,52,7.90
2008,11,25,17,53,8.00
2008,11,25,17,54,8.00
2008,11,25,17,55,7.90
2008,11,25,17,56,7.90
2008,11,25,17,57,7.80
2008,11,25,17,58,7.80
2008,11,25,17,59,7.80
2008,11,25,18,00,7.70
2008,11,25,18,01,7.80
2008,11,25,18,02,7.90